Regional Weather Roundup
Issued by NWS

Home | Current Version | Previous Version | Text Only | Print | Product List | Glossary On
Versions: 1 2 3 4 5 6 7 8 9 10 11 12 13 14 15 16 17 18 19 20 21 22 23 24 25 26 27 28 29 30 31 32 33 34 35 36 37 38 39 40 41 42 43 44 45 46 47 48 49 50
126
ASUS43 KDTX 080010
RWRMI
MICHIGAN HOURLY REGIONAL WEATHER ROUNDUP
NATIONAL WEATHER SERVICE DETROIT/PONTIAC MI
700 PM EST SUN FEB 07 2016

NOTE: "FAIR" INDICATES FEW OR NO CLOUDS BELOW 12,000 FEET WITH NO
SIGNIFICANT WEATHER AND/OR OBSTRUCTION TO VISIBILITY.

MIZ047>049-052>055-059>063-066>070-074>076-081>083-080100-
SOUTHEAST LOWER MICHIGAN

CITY           SKY/WX    TMP DP  RH WIND       PRES   REMARKS
ADRIAN         CLOUDY    42  32  67 SW8       29.77S
6HR MIN TEMP:  42; 6HR MAX TEMP:  46;

ALMA           CLOUDY    40  32  73 SW5       29.71S
ANN ARBOR      CLOUDY    44  29  55 SW8       29.76R
BAD AXE        CLOUDY    41  32  71 S7        29.72S
CARO           CLOUDY    44  30  58 SW8       29.72S
DETROIT CITY   CLOUDY    47  29  49 S16       29.77S
6HR MIN TEMP:  44; 6HR MAX TEMP:  48;

DETROIT        CLOUDY    46  30  53 S12       29.78S
6HR MIN TEMP:  46; 6HR MAX TEMP:  50;

FLINT          CLOUDY    47  28  47 SW14G20   29.74R
6HR MIN TEMP:  46; 6HR MAX TEMP:  49;

GROSSE ILE     CLOUDY    41  34  75 S10       29.77S
HILLSDALE      CLOUDY    42  29  60 SW6       29.75S
6HR MIN TEMP:  41; 6HR MAX TEMP:  45;

HOWELL         CLOUDY    43  29  58 S6        29.73F
6HR MIN TEMP:  43; 6HR MAX TEMP:  46;


CITY           SKY/WX    TMP DP  RH WIND       PRES   REMARKS
JACKSON        CLOUDY    43  28  55 SW10      29.75S
6HR MIN TEMP:  43; 6HR MAX TEMP:  48;

LAMBERTVILLE   CLOUDY    47  30  52 S12G17    29.78S
6HR MIN TEMP:  47; 6HR MAX TEMP:  50;

LANSING        CLOUDY    43  30  60 SW12      29.73S
6HR MIN TEMP:  43; 6HR MAX TEMP:  47;

LAPEER         CLOUDY    44  30  58 SW12G17   29.74S
6HR MIN TEMP:  44; 6HR MAX TEMP:  47;

MASON          CLOUDY    42  30  62 SW3       29.74S
MONROE         CLOUDY    47  30  51 S13G18    29.77S
6HR MIN TEMP:  46; 6HR MAX TEMP:  50;

MT. CLEMENS    CLOUDY    46  31  56 S14       29.75S
6HR MIN TEMP:  42; 6HR MAX TEMP:  46;

PONTIAC        CLOUDY    45  28  51 SW10      29.74S
6HR MIN TEMP:  45; 6HR MAX TEMP:  46;

PORT HOPE        N/A     41  32  70 VRB7      29.71R
6HR MIN TEMP:  39; 6HR MAX TEMP:  42;

PORT HURON     CLOUDY    45  32  61 S13G18    29.77R
TRI CITIES     LGT RAIN  44  31  60 SW12      29.72R
6HR MIN TEMP:  42; 6HR MAX TEMP:  47; 6HR PCP: TRACE;

MIDLAND        DRIZZLE   42  30  62 S6        29.70S
6HR MIN TEMP:  41; 6HR MAX TEMP:  45;

TROY           CLOUDY    48  28  47 S7        29.77S
SAGINAW HB     DRIZZLE   43  32  65 SW17      29.72S
$$
MIZ043>046-050>051-056>058-064>065-071>073-077>080-080100-
SOUTHWEST LOWER MICHIGAN

CITY           SKY/WX    TMP DP  RH WIND       PRES   REMARKS
BATTLE CREEK   CLOUDY    41  30  65 SW9       29.74S
6HR MIN TEMP:  41; 6HR MAX TEMP:  46;

BENTON HARBOR  PTCLDY    41  32  70 SW15G25   29.74S
6HR MIN TEMP:  41; 6HR MAX TEMP:  46;

BIG RAPIDS     CLOUDY    38  32  79 SW5       29.67S WCI  34
6HR MIN TEMP:  38; 6HR MAX TEMP:  43;

COLDWATER      CLOUDY    42  32  66 SW9       29.75S
6HR MIN TEMP:  42; 6HR MAX TEMP:  46;

FREMONT        CLOUDY    36  32  87 SW6       29.69S WCI  31
HOLLAND        CLOUDY    40  32  73 SW13      29.73R WCI  32
6HR MIN TEMP:  40; 6HR MAX TEMP:  43;

GRAND RAPIDS   MOCLDY    40  31  70 SW9       29.72R WCI  34
6HR MIN TEMP:  40; 6HR MAX TEMP:  45;

IONIA          CLOUDY    38  31  73 SW7       29.71S WCI  33
6HR MIN TEMP:  38; 6HR MAX TEMP:  45;

KALAMAZOO      CLOUDY    42  31  64 SW10      29.74S
6HR MIN TEMP:  42; 6HR MAX TEMP:  47;

LUDINGTON      CLOUDY    37  34  87 SW9       29.67S WCI  31
6HR MIN TEMP:  37; 6HR MAX TEMP:  40;

MARSHALL       CLOUDY    43  31  62 SW9       29.74S
6HR MIN TEMP:  43; 6HR MAX TEMP:  47;

MOUNT PLEASANT CLOUDY    41  29  63 SW9       29.70R
6HR MIN TEMP:  41; 6HR MAX TEMP:  46;

MUSKEGON       MOCLDY    39  33  79 SW10      29.71R WCI  32
6HR MIN TEMP:  38; 6HR MAX TEMP:  42;

SOUTH HAVEN    PTCLDY    41  33  73 SW15      29.73R
$$
MIZ016>042-080100-
NORTHERN LOWER MICHIGAN

CITY           SKY/WX    TMP DP  RH WIND       PRES   REMARKS
ALPENA         CLOUDY    38  29  70 S8        29.67S WCI  32
6HR MIN TEMP:  37; 6HR MAX TEMP:  40;

BEAVER ISLAND  CLOUDY    38  33  83 SW9       29.62S WCI  31
6HR MIN TEMP:  37; 6HR MAX TEMP:  39;

BELLAIRE       CLOUDY    39  31  72 S8        29.65S WCI  34
6HR MIN TEMP:  39; 6HR MAX TEMP:  44;

CADILLAC       CLOUDY    36  31  82 S9        29.64S WCI  29
CHARLEVOIX     CLOUDY    39  31  74 S7        29.66F WCI  34
6HR MIN TEMP:  38; 6HR MAX TEMP:  41;

FRANKFORT      CLOUDY    38  32  78 S12       29.64S WCI  31
GAYLORD        CLOUDY    38  30  73 SW12      29.63R WCI  30
6HR MIN TEMP:  36; 6HR MAX TEMP:  41;

GRAYLING       CLOUDY    37  30  74 SW10      29.67R WCI  30
6HR MIN TEMP:  37; 6HR MAX TEMP:  42;

HARBOR SPRINGS CLOUDY    38  31  75 SW9       29.63F WCI  32
HOUGHTON LAKE  CLOUDY    37  29  72 SW9       29.67R WCI  30
6HR MIN TEMP:  37; 6HR MAX TEMP:  41;

MANISTEE       CLOUDY    37  30  75 S6        29.66S WCI  33
OSCODA         LGT RAIN  38  31  74 SW8       29.69S WCI  32
6HR MIN TEMP:  38; 6HR MAX TEMP:  41;

PELLSTON       CLOUDY    36  32  85 CALM      29.64S
6HR MIN TEMP:  34; 6HR MAX TEMP:  39;

ROGERS CITY    CLOUDY    36  30  79 SE5       29.66S WCI  32
TRAVERSE CITY  CLOUDY    40  30  67 S5        29.63F
6HR MIN TEMP:  39; 6HR MAX TEMP:  45;

$$
MIZ007>008-015-080100-
EASTERN UPPER MICHIGAN

CITY           SKY/WX    TMP DP  RH WIND       PRES   REMARKS
KINROSS        CLOUDY    34  34 100 SE5       29.64S WCI  30
6HR MIN TEMP:  34; 6HR MAX TEMP:  34;

MACKINAC ISLAN CLOUDY    35  34  96 CALM      29.64R
6HR MIN TEMP:  33; 6HR MAX TEMP:  36;

NEWBERRY       CLOUDY    34  33  96 SE7       29.60R FOG     WCI  27
6HR MIN TEMP:  33; 6HR MAX TEMP:  35;

S. S. MARIE    CLOUDY    32  30  92 E7        29.65R FOG     WCI  26
6HR MIN TEMP:  30; 6HR MAX TEMP:  32; 6HR PCP:  0.15;

MUNISING         N/A     35  32  88 S5        29.56R WCI  31
6HR MIN TEMP:  35; 6HR MAX TEMP:  36;

$$
MIZ004>006-011>014-085-080100-
CENTRAL UPPER MICHIGAN

CITY           SKY/WX    TMP DP  RH WIND       PRES   REMARKS
MANISTIQUE     CLOUDY    36  33  92 SW9       29.59R WCI  29
6HR MIN TEMP:  36; 6HR MAX TEMP:  37;

ESCANABA       CLOUDY    37  32  81 SW5       29.58S WCI  34
6HR MIN TEMP:  36; 6HR MAX TEMP:  37; 6HR PCP:  0.02;

MENOMINEE      CLOUDY    37  28  70 SW5       29.60R WCI  34
6HR MIN TEMP:  37; 6HR MAX TEMP:  41;

SAWYER-GWINN   CLOUDY    32  32 100 S8        29.53R FOG     WCI  25
$$
MIZ001>003-009>011-084-080100-
WESTERN UPPER MICHIGAN

CITY           SKY/WX    TMP DP  RH WIND       PRES   REMARKS
IRON MOUNTAIN  CLOUDY    35  30  82 S7        29.54R WCI  29
6HR MIN TEMP:  34; 6HR MAX TEMP:  36; 6HR PCP: TRACE;

HOUGHTON       SNOW      32  31  96 E3        29.50S VSB 1/2
6HR MIN TEMP:  32; 6HR MAX TEMP:  33; 6HR PCP:  0.05;

COPPER HARBOR    N/A     33  32  96 CALM      29.53R
6HR MIN TEMP:  33; 6HR MAX TEMP:  34; 6HR PCP:  0.04;

IRONWOOD       CLOUDY    34  32  93 SW6       29.48S WCI  29
6HR MIN TEMP:  34; 6HR MAX TEMP:  36;

$$

ABBREVIATIONS USED IN REMARKS
   TC - TEMPERATURE IN CELSIUS
  WCI - WIND CHILL INDEX
   HX - HEAT INDEX
  VSB - VISIBILITY





USA.gov is the U.S. government's official web portal to all federal, state and local government web resources and services.